Location: Kitchener-Waterloo
(43.4500°N, 80.5000°W)
Time: 18:54:26
(UTC-04:00)

Amateur Radio Satellites - All Passes

Search period start: 29 July 2014 18:24
Search period end: 30 July 2014 18:24
Location: Kitchener-Waterloo, 43.4500°N, 80.5000°W

Satellite Date Start Highest point End Downlink Frequencies (MHz)
Time Altitude Azimuth
OPAL 29 Jul 18:50:00 18:54:08 26° 298° (WNW) 18:58:17 ?
JAS-2 29 Jul 18:56:25 19:04:15 80° 256° (WSW) 19:11:33 435.800 - 435.900 CW/SSB, 435.910 FM
STRAND 1 29 Jul 19:34:59 19:39:35 33° 96° (E) 19:44:08 ?
HO-68 29 Jul 19:39:45 19:44:13 18° 52° (NE) 19:48:41 435.675 MHz FM
SO-50 29 Jul 19:44:11 19:46:18 13° 31° (NNE) 19:48:26 436.795 FM
RS-15 29 Jul 19:45:27 19:54:09 26° 14° (NNE) 20:02:58 29.354 - 29.394 USB, Beacon 29.352 USB
SO-67 29 Jul 19:54:47 19:58:13 65° 259° (W) 20:01:41 435.3500 MHz FM
Hamsat 29 Jul 19:58:54 20:00:23 12° 271° (W) 20:01:51 145.90 MHz
UKube-1 29 Jul 20:39:19 20:42:11 17° 63° (ENE) 20:45:03 145.840 MHz, 145.915 MHz
JAS-2 29 Jul 20:45:44 20:50:05 16° 273° (W) 20:54:20 435.800 - 435.900 CW/SSB, 435.910 FM
MaSat-1 29 Jul 20:52:42 20:55:35 19° 101° (E) 20:58:45 437.345 MHz
STRAND 1 29 Jul 21:14:13 21:18:43 32° 294° (WNW) 21:23:11 ?
Oscar 11 29 Jul 21:23:00 21:26:24 23° 66° (ENE) 21:29:49 145.825 FM, Beacon 2401.500 USB
SO-50 29 Jul 21:23:10 21:27:52 58° 52° (NE) 21:32:36 436.795 FM
HO-68 29 Jul 21:23:42 21:30:52 81° 71° (ENE) 21:38:04 435.675 MHz FM
UOSAT-12 29 Jul 21:40:54 21:43:12 13° 32° (NNE) 21:45:30 437.025 FM, 437.400 FM
FUNcube-1 29 Jul 21:47:30 21:50:09 16° 64° (ENE) 21:52:46 145.950 - 145.970 MHz USB
RS-15 29 Jul 21:58:55 22:09:42 55° 45° (NE) 22:20:46 29.354 - 29.394 USB, Beacon 29.352 USB
UKube-1 29 Jul 22:13:46 22:18:01 50° 260° (W) 22:22:17 145.840 MHz, 145.915 MHz
MaSat-1 29 Jul 22:28:19 22:32:23 47° 303° (WNW) 22:37:05 437.345 MHz
Oscar 11 29 Jul 22:58:32 23:02:26 33° 263° (W) 23:06:21 145.825 FM, Beacon 2401.500 USB
SO-50 29 Jul 23:04:41 23:08:02 19° 249° (WSW) 23:11:25 436.795 FM
HO-68 29 Jul 23:14:28 23:19:20 19° 270° (W) 23:24:14 435.675 MHz FM
UOSAT-12 29 Jul 23:19:38 23:24:20 61° 52° (NE) 23:28:59 437.025 FM, 437.400 FM
FUNcube-1 29 Jul 23:22:00 23:26:11 50° 260° (W) 23:30:19 145.950 - 145.970 MHz USB
ISS 29 Jul 23:41:34 23:44:38 35° 139° (SE) 23:47:43 145.800 FM
RS-15 30 Jul 00:11:35 00:22:00 50° 248° (WSW) 00:32:48 29.354 - 29.394 USB, Beacon 29.352 USB
Sapphire 30 Jul 00:15:56 00:19:51 21° 106° (ESE) 00:23:47 437.095 MHz 1200 baud AX-25 AFSK
PCSat 30 Jul 00:47:51 00:52:53 42° 112° (ESE) 00:57:58 145.825 MHz
UOSAT-12 30 Jul 01:00:55 01:04:01 18° 250° (WSW) 01:07:05 437.025 FM, 437.400 FM
ISS 30 Jul 01:18:10 01:21:20 38° 337° (NNW) 01:24:31 145.800 FM
Sapphire 30 Jul 01:57:28 02:02:48 60° 304° (NW) 02:08:11 437.095 MHz 1200 baud AX-25 AFSK
JAS-1B 30 Jul 01:59:27 02:01:14 11° 76° (ENE) 02:02:59 435.800 - 435.900 CW/SSB
AO-40 30 Jul 02:17:19 04:08:32 24° 213° (SSW) 07:43:46 Beacon 2401.320
Oscar 19 30 Jul 02:18:34 02:23:06 30° 96° (E) 02:27:37 437.125 CW, 437.150 USB
AO-Echo 30 Jul 02:28:07 02:31:25 17° 90° (E) 02:34:38 ?
PCSat 30 Jul 02:31:33 02:36:24 33° 312° (NW) 02:41:17 145.825 MHz
Oscar 16 30 Jul 02:46:46 02:51:52 57° 101° (E) 02:56:57 437.025 USB, Beacon 2401.1428
OPAL 30 Jul 02:51:33 02:53:40 13° 55° (NE) 02:55:46 ?
ISS 30 Jul 02:56:08 02:58:42 20° 357° (N) 03:01:16 145.800 FM
Oscar 10/S400 30 Jul 03:01:40 03:51:55 57° 199° (SSW) 11:47:22 145.825 - 145.975 CW/USB, Beacon 145.810 USB
ITAMSAT 1 30 Jul 03:09:55 03:14:49 41° 98° (E) 03:19:39 435.822 SSB
Uribyol 2 30 Jul 03:28:57 03:34:06 65° 102° (ESE) 03:39:13 436.500 FM
AO-27 30 Jul 03:29:16 03:34:26 63° 102° (ESE) 03:39:33 436.795 MHz FM
TMSAT-1 30 Jul 03:33:17 03:37:19 22° 92° (E) 03:41:18 436.925 FM
Sapphire 30 Jul 03:44:46 03:47:24 14° 326° (NW) 03:50:03 437.095 MHz 1200 baud AX-25 AFSK
JAS-1B 30 Jul 03:44:49 03:54:05 59° 98° (E) 04:01:57 435.800 - 435.900 CW/SSB
Gurwin Techsat 1B 30 Jul 03:57:36 04:02:45 48° 99° (E) 04:07:52 435.225 FM
Oscar 19 30 Jul 03:57:46 04:02:27 36° 293° (WNW) 04:07:08 437.125 CW, 437.150 USB
AO-Echo 30 Jul 04:05:37 04:10:37 57° 288° (WNW) 04:15:24 ?
Uosat F 30 Jul 04:26:30 04:29:06 14° 90° (E) 04:31:42 435.120 FM
OPAL 30 Jul 04:26:51 04:31:48 89° 73° (ENE) 04:36:48 ?
Oscar 16 30 Jul 04:27:06 04:30:47 20° 298° (WNW) 04:34:29 437.025 USB, Beacon 2401.1428
ISS 30 Jul 04:33:13 04:36:10 28° 17° (NNE) 04:39:08 145.800 FM
ITAMSAT 1 30 Jul 04:49:49 04:54:07 27° 296° (WNW) 04:58:23 435.822 SSB
Uribyol 2 30 Jul 05:09:40 05:13:03 18° 300° (WNW) 05:16:26 436.500 FM
MaSat-1 30 Jul 05:09:43 05:12:01 13° 39° (NE) 05:14:17 437.345 MHz
AO-27 30 Jul 05:09:56 05:13:27 19° 299° (WNW) 05:16:56 436.795 MHz FM
TMSAT-1 30 Jul 05:12:24 05:17:31 51° 290° (WNW) 05:22:36 436.925 FM
JAS-1B 30 Jul 05:35:41 05:44:05 38° 301° (WNW) 05:51:31 435.800 - 435.900 CW/SSB
AO-7 30 Jul 05:36:52 05:45:05 58° 103° (ESE) 05:53:12 29.400 - 29.500 MHz
Gurwin Techsat 1B 30 Jul 05:38:14 05:42:25 24° 297° (WNW) 05:46:35 435.225 FM
KITSAT 1 30 Jul 05:43:47 05:50:35 31° 107° (ESE) 05:57:23 435.175 FM
Uosat F 30 Jul 06:03:24 06:08:25 71° 287° (WNW) 06:13:23 435.120 FM
Hamsat 30 Jul 06:07:06 06:08:00 11° 88° (E) 06:08:54 145.90 MHz
JAS-2 30 Jul 06:09:38 06:10:55 11° 83° (E) 06:12:11 435.800 - 435.900 CW/SSB, 435.910 FM
ISS 30 Jul 06:09:46 06:13:08 68° 216° (SW) 06:16:28 145.800 FM
OPAL 30 Jul 06:10:18 06:11:22 11° 270° (W) 06:12:26 ?
Saudisat 1A 30 Jul 06:43:12 06:44:15 11° 107° (ESE) 06:45:17 436.775 MHz
MaSat-1 30 Jul 06:45:12 06:50:29 60° 60° (ENE) 06:55:29 437.345 MHz
STRAND 1 30 Jul 06:51:53 06:56:53 54° 71° (ENE) 07:01:54 ?
AO-7 30 Jul 07:30:10 07:37:30 36° 303° (WNW) 07:44:48 29.400 - 29.500 MHz
JAS-1B 30 Jul 07:30:51 07:31:41 10° 324° (NW) 07:32:31 435.800 - 435.900 CW/SSB
KITSAT 1 30 Jul 07:37:24 07:45:26 65° 307° (NW) 07:53:31 435.175 FM
Hamsat 30 Jul 07:40:09 07:44:27 73° 285° (WNW) 07:48:46 145.90 MHz
JAS-2 30 Jul 07:51:10 07:57:10 86° 104° (ESE) 08:02:33 435.800 - 435.900 CW/SSB, 435.910 FM
PCSat 30 Jul 07:53:18 07:54:41 11° 30° (NNE) 07:56:04 145.825 MHz
Saudisat 1A 30 Jul 08:18:43 08:23:08 86° 305° (NW) 08:27:36 436.775 MHz
MaSat-1 30 Jul 08:23:36 08:27:19 20° 258° (WSW) 08:30:52 437.345 MHz
STRAND 1 30 Jul 08:32:45 08:36:24 19° 268° (W) 08:40:04 ?
SO-67 30 Jul 08:50:33 08:54:00 62° 284° (WNW) 08:57:26 435.3500 MHz FM
HO-68 30 Jul 08:52:58 08:56:02 13° 87° (E) 08:59:05 435.675 MHz FM
Sapphire 30 Jul 09:01:25 09:05:55 25° 45° (NE) 09:10:22 437.095 MHz 1200 baud AX-25 AFSK
PCSat 30 Jul 09:34:22 09:39:35 44° 52° (NE) 09:44:45 145.825 MHz
KITSAT 1 30 Jul 09:36:34 09:42:33 22° 331° (NNW) 09:48:33 435.175 FM
JAS-2 30 Jul 09:38:02 09:41:17 15° 306° (NW) 09:44:23 435.800 - 435.900 CW/SSB, 435.910 FM
Saudisat 1A 30 Jul 10:00:48 10:03:24 15° 324° (NW) 10:06:01 436.775 MHz
UKube-1 30 Jul 10:01:20 10:04:55 24° 95° (E) 10:08:28 145.840 MHz, 145.915 MHz
HO-68 30 Jul 10:37:41 10:44:52 76° 105° (ESE) 10:51:59 435.675 MHz FM
Sapphire 30 Jul 10:44:23 10:49:43 58° 244° (WSW) 10:55:00 437.095 MHz 1200 baud AX-25 AFSK
Oscar 11 30 Jul 10:44:38 10:48:42 38° 98° (E) 10:52:45 145.825 FM, Beacon 2401.500 USB
FUNcube-1 30 Jul 11:10:11 11:13:44 26° 95° (E) 11:17:18 145.950 - 145.970 MHz USB
PCSat 30 Jul 11:18:11 11:22:47 29° 251° (WSW) 11:27:23 145.825 MHz
UKube-1 30 Jul 11:37:17 11:41:09 32° 292° (WNW) 11:45:01 145.840 MHz, 145.915 MHz
KITSAT 1 30 Jul 11:37:51 11:41:42 14° 2° (N) 11:45:32 435.175 FM
SO-50 30 Jul 11:41:59 11:44:00 13° 108° (ESE) 11:46:02 436.795 FM
Oscar 11 30 Jul 12:21:23 12:24:39 21° 294° (WNW) 12:27:54 145.825 FM, Beacon 2401.500 USB
HO-68 30 Jul 12:26:28 12:31:51 24° 304° (NW) 12:37:14 435.675 MHz FM
RS-15 30 Jul 12:26:45 12:35:11 26° 102° (ESE) 12:43:28 29.354 - 29.394 USB, Beacon 29.352 USB
Oscar 16 30 Jul 12:29:06 12:31:26 13° 58° (ENE) 12:33:47 437.025 USB, Beacon 2401.1428
JAS-1B 30 Jul 12:43:18 12:48:31 16° 44° (NE) 12:53:51 435.800 - 435.900 CW/SSB
FUNcube-1 30 Jul 12:46:34 12:50:06 27° 292° (WNW) 12:53:40 145.950 - 145.970 MHz USB
ITAMSAT 1 30 Jul 12:54:47 12:55:36 10° 55° (NE) 12:56:25 435.822 SSB
Uribyol 2 30 Jul 13:11:20 13:14:22 16° 59° (ENE) 13:17:24 436.500 FM
AO-27 30 Jul 13:11:56 13:14:56 16° 59° (ENE) 13:17:56 436.795 MHz FM
SO-50 30 Jul 13:19:27 13:23:55 74° 306° (NW) 13:28:30 436.795 FM
KITSAT 1 30 Jul 13:34:18 13:40:40 24° 32° (NNE) 13:47:00 435.175 FM
UOSAT-12 30 Jul 13:34:24 13:36:37 13° 108° (ESE) 13:38:51 437.025 FM, 437.400 FM
Oscar 19 30 Jul 13:36:31 13:41:24 48° 70° (ENE) 13:46:20 437.125 CW, 437.150 USB
AO-Echo 30 Jul 13:41:26 13:45:53 28° 65° (ENE) 13:50:20 ?
Gurwin Techsat 1B 30 Jul 13:43:45 13:46:00 13° 57° (ENE) 13:48:15 435.225 FM
Oscar 16 30 Jul 14:04:55 14:10:02 89° 256° (WSW) 14:15:12 437.025 USB, Beacon 2401.1428
JAS-1B 30 Jul 14:27:59 14:36:47 56° 66° (ENE) 14:46:21 435.800 - 435.900 CW/SSB
ITAMSAT 1 30 Jul 14:28:58 14:34:09 70° 73° (ENE) 14:39:21 435.822 SSB
RS-15 30 Jul 14:35:01 14:46:11 85° 304° (NW) 14:57:11 29.354 - 29.394 USB, Beacon 29.352 USB
AO-7 30 Jul 14:47:40 14:53:29 22° 49° (NE) 14:59:17 29.400 - 29.500 MHz
Uribyol 2 30 Jul 14:48:02 14:53:13 76° 257° (WSW) 14:58:26 436.500 FM
AO-27 30 Jul 14:48:35 14:53:48 78° 257° (WSW) 14:59:03 436.795 MHz FM
TMSAT-1 30 Jul 14:54:57 14:59:48 38° 68° (ENE) 15:04:40 436.925 FM
SO-50 30 Jul 15:02:51 15:05:19 14° 327° (NNW) 15:07:49 436.795 FM
Saudisat 1A 30 Jul 15:05:51 15:08:50 17° 38° (NE) 15:11:47 436.775 MHz
UOSAT-12 30 Jul 15:11:30 15:16:07 76° 305° (NW) 15:20:50 437.025 FM, 437.400 FM
Oscar 19 30 Jul 15:17:09 15:21:00 21° 267° (W) 15:24:54 437.125 CW, 437.150 USB
AO-Echo 30 Jul 15:19:26 15:24:26 42° 262° (W) 15:29:29 ?
Gurwin Techsat 1B 30 Jul 15:19:49 15:25:08 84° 75° (ENE) 15:30:29 435.225 FM
KITSAT 1 30 Jul 15:29:21 15:37:29 77° 56° (NE) 15:45:32 435.175 FM
Uosat F 30 Jul 15:40:24 15:44:22 24° 64° (ENE) 15:48:20 435.120 FM
Oscar 16 30 Jul 15:48:58 15:50:07 11° 273° (W) 15:51:16 437.025 USB, Beacon 2401.1428
ITAMSAT 1 30 Jul 16:11:11 16:14:09 15° 270° (W) 16:17:08 435.822 SSB
JAS-1B 30 Jul 16:19:04 16:27:26 42° 267° (W) 16:36:38 435.800 - 435.900 CW/SSB
JAS-2 30 Jul 16:25:18 16:25:58 10° 49° (NE) 16:26:37 435.800 - 435.900 CW/SSB, 435.910 FM
TMSAT-1 30 Jul 16:35:12 16:39:46 29° 265° (W) 16:44:23 436.925 FM
OPAL 30 Jul 16:36:15 16:40:02 21° 95° (E) 16:43:50 ?
AO-7 30 Jul 16:36:43 16:45:05 82° 70° (ENE) 16:53:29 29.400 - 29.500 MHz
Saudisat 1A 30 Jul 16:44:32 16:48:57 78° 238° (WSW) 16:53:20 436.775 MHz
RS-15 30 Jul 16:50:40 17:00:16 33° 332° (NNW) 17:09:52 29.354 - 29.394 USB, Beacon 29.352 USB
UOSAT-12 30 Jul 16:54:21 16:57:05 15° 326° (NW) 16:59:51 437.025 FM, 437.400 FM
Gurwin Techsat 1B 30 Jul 17:03:31 17:05:46 13° 272° (W) 17:08:02 435.225 FM
Uosat F 30 Jul 17:18:03 17:22:52 45° 261° (W) 17:27:43 435.120 FM
KITSAT 1 30 Jul 17:25:53 17:32:04 25° 256° (WSW) 17:38:14 435.175 FM
JAS-2 30 Jul 18:02:10 18:09:30 48° 68° (ENE) 18:16:18 435.800 - 435.900 CW/SSB, 435.910 FM
OPAL 30 Jul 18:14:16 18:19:11 51° 292° (WNW) 18:24:08 ?
